{"data":{"norad_id":62677,"epoch":"2026-09-22T16:45:35.064864Z","epoch_age_seconds":129606,"freshness":"FRESH","line1":"1 62677U 25009BW  26265.69832251  .00020511  00000+0  40995-3 0  9999","line2":"2 62677  97.3752 352.3843 0002323 328.3332  31.7777 15.46830563151870","mean_motion":15.46830563,"eccentricity":0.0002323,"inclination_deg":97.3752,"raan_deg":352.3843,"arg_perigee_deg":328.3332,"mean_anomaly_deg":31.7777,"bstar":0.00040995,"rev_number":15187,"period_min":93.093583385577,"perigee_km":424.4240281356,"apogee_km":427.58523233701,"semimajor_km":6804.1416302363,"source":"CELESTRAK","updated_at":"2026-09-23T09:00:21.547289Z"}}